"TOA5","AWS1","CR1000","7964","CR1000.Std.14","CPU:AWS1_114.CR1","64363","TBL110"
"TIMESTAMP","RECORD","Wind_spd_WVc(1)","Wind_spd_WVc(2)","Air_Temp_Avg","Humidity_Avg","SW_upper_Wm2_Avg","Rain_Tot","Press_Avg","Issui_Tot","Depth_cm","SR50A_Raw","Quality","Ground_Temp_Avg(1)","Ground_Temp_Avg(2)","SW_lower_Wm2_Avg","Albedo_Avg","SWC_per(1)","SWC_per(2)","Period(1)","Period(2)"
"TS","RN","","","","","","","","","","","","","","","","","","",""
"","","WVc","WVc","Avg","Avg","Avg","Tot","Avg","Tot","Smp","Smp","Smp","Avg","Avg","Avg","Avg","Smp","Smp","Smp","Smp"
"2018-05-23 00:00:00",341773,0.209,58,10.35,100,0,0,865.6774,0,2.328,3.099,270,14.5,13.54,0,0,49.19,56.81,33.09,34.94
"2018-05-23 00:10:00",341774,0.163,127.9,10.29,100,0,0,865.4984,0,2.124,3.101,256,14.47,13.54,0,0,49.19,56.81,33.09,34.94
"2018-05-23 00:20:00",341775,0.352,141.7,10.2,100,0,0,865.2709,0,1.766,3.105,237,14.5,13.54,0,0,49.19,56.75,33.09,34.93
"2018-05-23 00:30:00",341776,0,0,9.99,100,0,0,865.1403,0,1.91,3.105,222,14.43,13.54,0,0,49.19,56.81,33.09,34.94
"2018-05-23 00:40:00",341777,0.027,8.33,9.92,100,0,0,865.1318,0,1.551,3.109,209,14.45,13.54,0,0,49.19,56.81,33.09,34.94
"2018-05-23 00:50:00",341778,0,0,9.71,100,0,0,865.1318,0,1.749,3.108,213,14.42,13.54,0.01516333,0,49.19,56.81,33.09,34.94
"2018-05-23 01:00:00",341779,0.022,115,9.69,100,0,0,864.9171,0,1.647,3.109,214,14.34,13.54,0.4169919,0,49.13,56.75,33.08,34.93
"2018-05-23 01:10:00",341780,0.239,129.9,9.73,100,0,0,864.8475,0,1.599,3.109,224,14.36,13.54,0.4473187,0,49.19,56.75,33.09,34.93
"2018-05-23 01:20:00",341781,0.526,134,9.66,100,0,0,864.6263,0,1.492,3.111,219,14.37,13.55,0.2501952,0,49.19,56.81,33.09,34.94
"2018-05-23 01:30:00",341782,0.355,121.4,9.57,100,0,0,864.5885,0,1.594,3.11,226,14.33,13.56,0.01895418,0,49.19,56.75,33.09,34.93
"2018-05-23 01:40:00",341783,0.459,112.4,9.51,100,0,0,864.4768,0,1.236,3.114,210,14.26,13.56,0.02653586,0,49.13,56.75,33.08,34.93
"2018-05-23 01:50:00",341784,0.359,117.7,9.42,100,0,0,864.3737,0,1.487,3.112,220,14.28,13.57,0.04549004,0,49.13,56.75,33.08,34.93
"2018-05-23 02:00:00",341785,0.284,128.7,9.45,100,0,0,864.2579,0,1.284,3.114,209,14.29,13.57,0.1819602,0,49.19,56.75,33.09,34.93
"2018-05-23 02:10:00",341786,0.184,121.4,9.46,100,0,0,864.1281,0,1.236,3.114,224,14.26,13.56,0.08339839,0,49.19,56.75,33.09,34.93
"2018-05-23 02:20:00",341787,0.17,65.74,9.46,100,0,0,864.0694,0,0.954,3.117,210,14.23,13.53,0.2388227,0,49.13,56.75,33.08,34.93
"2018-05-23 02:30:00",341788,0.097,72.76,9.52,100,0,0,863.8695,0,1.211,3.114,208,14.17,13.57,0.3411753,0,49.19,56.75,33.09,34.93
"2018-05-23 02:40:00",341789,0.109,29.97,9.53,100,0,0,863.9506,0,1.11,3.115,212,14.18,13.51,0.2691494,0,49.19,56.75,33.09,34.93
"2018-05-23 02:50:00",341790,0.211,129.3,9.48,100,0,0,863.9589,0,1.207,3.115,208,14.18,13.53,0.04549004,0,49.13,56.7,33.08,34.91
"2018-05-23 03:00:00",341791,0.12,129.4,9.32,100,0,0,863.8682,0,1.052,3.117,204,14.14,13.54,0,0,49.19,56.75,33.09,34.93
"2018-05-23 03:10:00",341792,0.073,126.4,9.18,100,0,0,863.865,0,1.255,3.115,209,14.09,13.54,0.03790836,0,49.13,56.7,33.08,34.91
"2018-05-23 03:20:00",341793,0.243,91.4,9.23,100,0,0,863.8506,0,1.202,3.116,203,14.11,13.54,0.2198685,0,49.19,56.7,33.09,34.91
"2018-05-23 03:30:00",341794,0.208,142.3,9.14,100,0,0,863.6537,0,1.227,3.116,209,14.12,13.54,0,0,49.19,56.7,33.09,34.91
"2018-05-23 03:40:00",341795,0.16,99.4,9.11,100,0,0,863.605,0,1.478,3.114,207,14.07,13.51,0.06823505,0,49.13,56.7,33.08,34.91
"2018-05-23 03:50:00",341796,0.297,93,9.04,100,0,0,863.4807,0,1.096,3.118,202,14.04,13.5,0.0416992,0,49.13,56.7,33.08,34.91
"2018-05-23 04:00:00",341797,0.356,94,8.97,100,0,0,863.3627,0,1.121,3.118,203,14.01,13.5,0.003790837,0,49.13,56.7,33.08,34.91
"2018-05-23 04:10:00",341798,0.202,119.6,8.93,100,0,0,863.2712,0,1.145,3.118,225,14.03,13.5,0.05686254,0,49.13,56.7,33.08,34.91
"2018-05-23 04:20:00",341799,0.319,24.9,8.88,100,0,0,863.3385,0,2.437,3.106,366,14.02,13.49,0.07202589,0,49.13,56.7,33.08,34.91
"2018-05-23 04:30:00",341800,0.143,27.26,8.93,100,0,0,863.3688,0,0.815,3.121,304,13.94,13.45,0.3601294,0,49.13,56.7,33.08,34.91
"2018-05-23 04:40:00",341801,0.081,69.69,8.95,100,0.007863254,0,863.3676,0,-0.408,3.134,247,13.94,13.43,0.1667968,0.064,49.19,56.7,33.09,34.91
"2018-05-23 04:50:00",341802,0.144,59.28,8.71,100,0.2280343,0,863.3716,0,-0.18,3.132,230,13.94,13.42,0.09477091,0.127,49.19,56.7,33.09,34.91
"2018-05-23 05:00:00",341803,0.09,56.36,8.76,100,1.47436,0,863.5514,0,0.076,3.129,202,13.96,13.42,0.4549004,0.318,49.19,56.7,33.09,34.91
"2018-05-23 05:10:00",341804,0.199,64.16,8.73,100,2.374702,0,863.6244,0,0.58,3.125,217,13.92,13.42,0.4549004,0.197,49.19,56.7,33.09,34.91
"2018-05-23 05:20:00",341805,0.274,140.6,8.66,100,6.180518,0,863.4604,0,0.929,3.123,206,13.91,13.42,1.209277,0.199,49.13,56.7,33.08,34.91
"2018-05-23 05:30:00",341806,0.106,131.3,8.49,100,11.2877,0,863.5031,0,1.059,3.121,217,13.92,13.45,2.020516,0.18,49.13,56.64,33.08,34.9
"2018-05-23 05:40:00",341807,0.165,81.8,8.57,100,7.647014,0,863.6394,0,0.856,3.123,202,13.86,13.46,1.467054,0.191,49.13,56.64,33.08,34.9
"2018-05-23 05:50:00",341808,0.111,90.8,8.62,100,9.718981,0,863.8578,0,0.759,3.123,201,13.87,13.46,1.865091,0.191,49.19,56.64,33.09,34.9
"2018-05-23 06:00:00",341809,0.104,98.2,8.69,100,9.561717,0,863.9442,0,0.682,3.124,201,13.81,13.46,1.762739,0.185,49.19,56.64,33.09,34.9
"2018-05-23 06:10:00",341810,0.215,68.2,8.62,100,12.87608,0,863.9996,0,0.498,3.127,210,13.79,13.46,2.251757,0.176,49.13,56.64,33.08,34.9
"2018-05-23 06:20:00",341811,0.257,114.7,8.56,100,23.23985,0,863.887,0,0.551,3.126,230,13.76,13.46,3.965215,0.171,49.19,56.64,33.09,34.9
"2018-05-23 06:30:00",341812,0.123,138.1,8.58,100,44.07354,0,863.8629,0,-0.005,3.131,228,13.76,13.44,7.270824,0.165,49.19,56.64,33.09,34.9
"2018-05-23 06:40:00",341813,0.126,124.1,8.57,99.9,48.69713,0,863.8273,0,-0.159,3.133,207,13.77,13.41,7.782587,0.16,49.19,56.64,33.09,34.9
"2018-05-23 06:50:00",341814,0.249,117.1,8.61,99.8,66.25578,0,863.6529,0,-0.001,3.13,211,13.8,13.39,10.67879,0.161,49.19,56.64,33.09,34.9
"2018-05-23 07:00:00",341815,0.354,85.8,8.8,95.6,91.3828,0,863.6359,0,0.56,3.124,221,13.73,13.38,15.06857,0.165,49.13,56.64,33.08,34.9
"2018-05-23 07:10:00",341816,0.451,131.7,8.84,92.5,121.8686,0,863.4376,0,0.608,3.124,213,13.66,13.38,20.15967,0.165,49.13,56.64,33.08,34.9
"2018-05-23 07:20:00",341817,0.433,172.4,8.97,91.2,172.0794,0,863.3739,0,-0.221,3.13,226,13.63,13.37,28.64735,0.166,49.13,56.64,33.08,34.9
"2018-05-23 07:30:00",341818,0.515,56.33,9.23,89.3,156.8051,0,863.317,0,0.693,3.121,222,13.63,13.37,25.39102,0.161,49.13,56.64,33.08,34.9
"2018-05-23 07:40:00",341819,0.246,342,9.3,89.3,123.343,0,863.3192,0,0.368,3.123,214,13.67,13.37,19.49627,0.158,49.19,56.64,33.09,34.9
"2018-05-23 07:50:00",341820,0.106,45.35,9.46,89.9,119.1165,0,863.1101,0,0.547,3.121,202,13.67,13.36,18.57131,0.156,49.13,56.58,33.08,34.88
"2018-05-23 08:00:00",341821,0.127,44.26,9.51,91,148.7806,0,863.1015,0,0.629,3.119,220,13.68,13.35,23.71168,0.159,49.13,56.58,33.08,34.88
"2018-05-23 08:10:00",341822,0.097,95.2,9.8,90.4,136.6319,0,863.1142,0,0.406,3.12,208,13.68,13.36,20.90646,0.153,49.13,56.58,33.08,34.88
"2018-05-23 08:20:00",341823,0.096,86.6,9.92,88.9,156.117,0,863.1163,0,0.382,3.12,224,13.67,13.34,23.86332,0.153,49.19,56.58,33.09,34.88
"2018-05-23 08:30:00",341824,0.274,128,9.72,89.2,187.8327,0,863.1163,0,0.632,3.119,214,13.66,13.34,29.43572,0.156,49.13,56.58,33.08,34.88
"2018-05-23 08:40:00",341825,0.114,308.4,9.84,89.9,187.6152,0,863.1984,0,1.697,3.107,283,13.62,13.32,29.25614,0.156,49.13,56.58,33.08,34.88
"2018-05-23 08:50:00",341826,0.347,86.7,9.78,88,183.1513,0,863.1163,0,-0.405,3.128,225,13.59,13.27,28.38916,0.155,49.13,56.58,33.08,34.88
"2018-05-23 09:00:00",341827,0.35,155.5,10.15,87.4,247.4891,0,863.1078,0,0.807,3.115,241,13.57,13.25,39.86711,0.161,49.19,56.58,33.09,34.88
"2018-05-23 09:10:00",341828,0.557,59.92,10.03,87.9,246.0304,0,862.9056,0,0.709,3.117,240,13.56,13.21,39.61058,0.161,49.13,56.58,33.08,34.88
"2018-05-23 09:20:00",341829,0.41,159.3,10.22,87.7,245.7581,0,862.7098,0,0.188,3.12,214,13.55,13.2,39.83652,0.162,49.13,56.58,33.08,34.88
"2018-05-23 09:30:00",341830,0.251,131.4,10.37,86.4,153.2076,0,862.8088,0,-3.376,3.155,192,13.54,13.2,23.50671,0.152,49.13,56.58,33.08,34.88
"2018-05-23 09:40:00",341831,0.307,87.6,10.15,90.9,123.9575,0,862.7435,0,-0.197,3.125,226,13.54,13.22,18.58017,0.15,49.13,56.58,33.08,34.88
"2018-05-23 09:50:00",341832,0.13,134,10.15,97.3,151.996,0,862.7982,0,-0.198,3.125,218,13.54,13.24,21.90357,0.144,49.13,56.58,33.08,34.88
"2018-05-23 10:00:00",341833,0.134,133.4,10.08,99.8,164.6992,0,862.853,0,-2.794,3.15,194,13.54,13.22,22.81692,0.139,49.19,56.58,33.09,34.88
"2018-05-23 10:10:00",341834,0.078,114.8,10.16,100,151.8682,0,862.7161,0,0.921,3.114,242,13.55,13.19,19.8082,0.13,49.13,56.58,33.08,34.88
"2018-05-23 10:20:00",341835,0.117,131.6,9.77,100,140.68,0,862.5855,0,1.543,3.11,287,13.58,13.13,17.86811,0.127,49.19,56.58,33.09,34.88
"2018-05-23 10:30:00",341836,0.511,125.2,9.54,100,165.9944,0,862.3812,0,-1.832,3.145,200,13.61,13.15,21.59041,0.13,49.13,56.52,33.08,34.87
"2018-05-23 10:40:00",341837,0.613,127.6,9.44,100,230.8773,0.5,862.3285,0,1.525,3.111,341,13.62,13.18,30.83873,0.133,49.19,56.52,33.09,34.87
"2018-05-23 10:50:00",341838,0.534,127.9,9.51,100,290.321,0,862.0969,0,1.19,3.113,227,13.65,13.19,38.93234,0.134,49.13,56.58,33.08,34.88
"2018-05-23 11:00:00",341839,0.41,134.1,10.17,100,264.1922,0,862.0253,0,0.816,3.114,240,13.71,13.21,34.68512,0.131,49.13,56.52,33.08,34.87
"2018-05-23 11:10:00",341840,0.477,68.46,10.44,99.2,197.5071,0,861.9094,0,0.561,3.116,233,13.7,13.21,25.71799,0.13,49.13,56.52,33.08,34.87
"2018-05-23 11:20:00",341841,0.187,13.18,10.44,99.9,199.7083,0,861.8463,0,1.157,3.109,219,13.69,13.21,25.33513,0.127,49.13,56.52,33.08,34.87
"2018-05-23 11:30:00",341842,0.252,68.38,10.75,100,198.6915,0,861.7746,0,-1.178,3.13,234,13.69,13.21,25.05052,0.126,49.13,56.52,33.08,34.87
"2018-05-23 11:40:00",341843,0.283,90.7,10.63,100,191.886,0.5,861.5829,0,-1.664,3.137,208,13.69,13.2,24.1554,0.126,49.13,56.52,33.08,34.87
"2018-05-23 11:50:00",341844,0.276,103.7,10.75,100,253.1304,0,861.3913,0,-0.568,3.123,260,13.72,13.18,32.4691,0.128,49.19,56.52,33.09,34.87
"2018-05-23 12:00:00",341845,0.29,82,11.17,100,284.0882,0,861.3239,0,-0.15,3.118,250,13.7,13.17,36.73121,0.129,49.13,56.52,33.08,34.87
"2018-05-23 12:10:00",341846,0.409,123.5,11.37,100,324.7985,0,861.1533,0,-0.37,3.119,259,13.69,13.16,42.48331,0.131,49.19,56.52,33.09,34.87
"2018-05-23 12:20:00",341847,0.246,106,11.59,100,324.2306,0,861.0775,0,-0.944,3.123,204,13.73,13.12,42.05379,0.13,49.13,56.52,33.08,34.87
"2018-05-23 12:30:00",341848,0.524,24.55,11.56,99.5,307.8861,0.5,860.909,0,2.284,3.094,324,13.79,13.11,40.03315,0.13,49.13,56.52,33.08,34.87
"2018-05-23 12:40:00",341849,0.598,3.085,11.29,100,315.5205,0,860.7952,0,0.525,3.111,255,13.77,13.13,41.10531,0.13,49.13,56.52,33.08,34.87
"2018-05-23 12:50:00",341850,0.339,53.99,11.57,100,331.8893,0,860.5383,0,2.02,3.094,250,13.75,13.12,43.65558,0.132,49.13,56.58,33.08,34.88
"2018-05-23 13:00:00",341851,0.344,132.7,11.69,100,338.2248,0,860.334,0,0.789,3.107,231,13.76,13.11,44.88715,0.133,49.13,56.58,33.08,34.88
"2018-05-23 13:10:00",341852,0.38,130.2,11.56,100,342.9489,0,860.2518,0,0.429,3.111,216,13.8,13.11,45.36842,0.132,49.19,56.52,33.09,34.87
"2018-05-23 13:20:00",341853,0.737,119.5,11.56,100,342.666,0,860.0391,0,0.385,3.11,286,13.74,13.11,46.79329,0.137,49.13,56.52,33.08,34.87
"2018-05-23 13:30:00",341854,0.469,43.43,12.25,95.4,331.2564,0,860.0012,0,0.51,3.105,204,13.8,13.11,46.1756,0.139,49.13,56.52,33.08,34.87
"2018-05-23 13:40:00",341855,0.417,15.57,12.41,99.1,231.9302,0,859.9401,0,0.559,3.105,207,13.88,13.11,31.14248,0.133,49.19,56.52,33.09,34.87
"2018-05-23 13:50:00",341856,0.164,330.7,11.93,100,91.37132,0,860.0159,0,1.095,3.104,208,13.92,13.11,10.9101,0.119,49.13,56.52,33.08,34.87
"2018-05-23 14:00:00",341857,0.371,40.47,11.44,100,156.6259,0,859.9001,0,1.606,3.099,246,13.93,13.14,20.9145,0.132,49.13,56.46,33.08,34.86
"2018-05-23 14:10:00",341858,0.365,339.5,11.21,100,99.18079,0,859.919,0,0.462,3.114,231,13.89,13.12,12.49792,0.123,49.13,56.46,33.08,34.86
"2018-05-23 14:20:00",341859,0.199,296.5,10.49,100,55.45242,0,860.0391,0,0.117,3.12,204,13.96,13.08,6.627913,0.119,49.13,56.52,33.08,34.87
"2018-05-23 14:30:00",341860,0.236,62.43,10.53,100,72.42339,0,859.8917,0,0.655,3.114,224,13.97,13.09,9.273015,0.128,49.13,56.46,33.08,34.86
"2018-05-23 14:40:00",341861,0.523,122.8,10.78,100,131.6253,0,859.6663,0,0.054,3.118,225,14.03,13.07,17.69338,0.134,49.13,56.46,33.08,34.86
"2018-05-23 14:50:00",341862,0.438,102.5,11.12,100,212.9783,0,859.3187,0,-0.033,3.116,229,13.99,13.07,28.75885,0.135,49.13,56.46,33.08,34.86
"2018-05-23 15:00:00",341863,0.371,305.7,11.58,100,169.9338,0,859.3019,0,1.479,3.1,225,14.04,13.07,22.94948,0.135,49.13,56.46,33.08,34.86
"2018-05-23 15:10:00",341864,0.416,11.65,11.61,100,131.0515,0,859.283,0,0.993,3.105,269,14.06,13.08,17.37506,0.132,49.08,56.46,33.07,34.86
"2018-05-23 15:20:00",341865,0.205,338.1,11.6,100,99.07468,0,859.3187,0,-2.478,3.139,208,14.09,13.08,12.87308,0.13,49.13,56.46,33.08,34.86
"2018-05-23 15:30:00",341866,0.269,57.99,11.6,100,139.5252,0,859.1818,0,-1.817,3.133,213,14.14,13.09,18.75067,0.133,49.13,56.46,33.08,34.86
"2018-05-23 15:40:00",341867,0.217,24.81,11.51,100,140.7829,0.5,859.0807,0,-2.633,3.141,196,14.11,13.08,18.31108,0.13,49.13,56.52,33.08,34.87
"2018-05-23 15:50:00",341868,0.268,116.8,11.69,100,138.5308,0,859.0618,0,-3.34,3.146,184,14.1,13.09,17.65549,0.127,49.08,56.52,33.07,34.87
"2018-05-23 16:00:00",341869,0.255,122.6,11.85,100,144.5284,0,858.9249,0,-2.853,3.141,195,14.07,13.08,18.72035,0.13,49.13,56.46,33.08,34.86
"2018-05-23 16:10:00",341870,0.375,110.3,11.98,100,148.7299,0,858.8069,0,-1.646,3.128,217,14.11,13.07,19.72079,0.133,49.13,56.52,33.08,34.87
"2018-05-23 16:20:00",341871,0.283,118.8,11.99,100,163.8301,0,858.5605,0,-0.673,3.118,243,14.15,13.07,21.53977,0.131,49.13,56.52,33.08,34.87
"2018-05-23 16:30:00",341872,0.21,55.44,12.25,100,93.76878,0,858.5773,0,0.71,3.104,301,14.15,13.08,12.12654,0.129,49.13,56.46,33.08,34.86
"2018-05-23 16:40:00",341873,0.029,334.9,12.26,100,42.8755,0,858.6153,0,0.45,3.107,243,14.15,13.08,5.248519,0.122,49.13,56.46,33.08,34.86
"2018-05-23 16:50:00",341874,0.034,53.12,12.22,100,47.17916,0,858.5626,0,-1.287,3.124,212,14.15,13.1,5.835898,0.124,49.13,56.46,33.08,34.86
"2018-05-23 17:00:00",341875,0.031,131.7,12.02,100,60.94303,0.5,858.4678,0,0.139,3.111,208,14.15,13.09,7.412349,0.121,49.13,56.52,33.08,34.87
"2018-05-23 17:10:00",341876,0.112,154.7,12,100,60.30239,0,858.3141,0,0.704,3.105,224,14.15,13.09,7.548773,0.125,49.13,56.46,33.08,34.86
"2018-05-23 17:20:00",341877,0.067,60.76,12.09,100,38.84696,0,858.3099,0,-1.19,3.124,228,14.16,13.09,5.066621,0.131,49.19,56.46,33.09,34.86
"2018-05-23 17:30:00",341878,0.157,23.32,12.07,100,29.69332,0.5,858.3077,0,1.419,3.098,229,14.2,13.09,3.979022,0.134,49.19,56.46,33.09,34.86
"2018-05-23 17:40:00",341879,0.036,308.6,11.89,100,23.29481,0,858.3267,0,1.407,3.1,210,14.22,13.1,3.073321,0.131,49.19,56.46,33.09,34.86
"2018-05-23 17:50:00",341880,0.035,347,11.63,100,16.95919,0,858.3077,0,0.789,3.107,253,14.21,13.09,2.224462,0.131,49.19,56.46,33.09,34.86
"2018-05-23 18:00:00",341881,0.155,56.67,11.57,100,18.94791,0,858.3077,0,1.84,3.096,331,14.23,13.11,2.739841,0.144,49.13,56.46,33.08,34.86
"2018-05-23 18:10:00",341882,0.031,65.8,11.86,100,23.70749,0,858.3077,0,2.05,3.093,308,14.19,13.13,3.543224,0.15,49.13,56.52,33.08,34.87
"2018-05-23 18:20:00",341883,0.12,24.36,11.92,100,10.68252,0,858.3289,0,-0.606,3.119,242,14.17,13.13,1.728032,0.166,49.13,56.46,33.08,34.86
"2018-05-23 18:30:00",341884,0.01,21.88,11.94,100,5.659613,0,858.3077,0,3.739,3.076,355,14.17,13.14,1.095178,0.193,49.13,56.46,33.08,34.86
"2018-05-23 18:40:00",341885,0.019,354.2,11.95,100,4.189686,0,858.3077,0,-0.708,3.12,209,14.15,13.15,0.7920148,0.191,49.13,56.46,33.08,34.86
"2018-05-23 18:50:00",341886,0,0,11.86,100,1.344158,0.5,858.3057,0,-0.63,3.119,203,14.15,13.15,0.4130603,0.315,49.13,56.41,33.08,34.84
"2018-05-23 19:00:00",341887,0.083,2.607,11.89,100,0.4362618,0,858.3077,0,-0.762,3.121,203,14.15,13.15,0.4433767,0.605,49.19,56.46,33.09,34.86
"2018-05-23 19:10:00",341888,0.092,41.77,11.85,100,0,0,858.3077,0,-0.936,3.122,205,14.15,13.15,0.424429,0,49.19,56.46,33.09,34.86
"2018-05-23 19:20:00",341889,0.048,18.43,11.93,100,0,0.5,858.2783,0,-0.426,3.117,204,14.15,13.15,0.4547453,0,49.19,56.46,33.09,34.86
"2018-05-23 19:30:00",341890,0.038,29.2,11.93,100,0,0,858.3057,0,0.392,3.109,236,14.18,13.15,0.4471663,0,49.19,56.46,33.09,34.86
"2018-05-23 19:40:00",341891,0.249,346.8,11.82,100,0,0,858.3077,0,-0.683,3.12,211,14.17,13.15,0.2690577,0,49.19,56.41,33.09,34.84
"2018-05-23 19:50:00",341892,0,0,11.71,100,0,0.5,858.3372,0,-0.689,3.121,237,14.12,13.15,0.2046354,0,49.19,56.41,33.09,34.84
"2018-05-23 20:00:00",341893,0.062,28.26,11.63,100,0,1.5,858.5437,0,0.867,3.106,225,14.13,13.15,0.2463204,0,49.19,56.46,33.09,34.86
"2018-05-23 20:10:00",341894,0,0,11.62,100,0,1.5,858.5668,0,-3.499,3.149,177,14.14,13.15,0.2804263,0,49.24,56.46,33.11,34.86
"2018-05-23 20:20:00",341895,0,0,11.63,100,0,0.5,858.59,0,-1.199,3.126,225,14.13,13.15,0.3296904,0,49.79,56.46,33.24,34.86
"2018-05-23 20:30:00",341896,0.07,17.87,11.61,100,0,1,858.7606,0,-3.193,3.146,195,14.07,13.15,0.3637963,0,50.39,56.46,33.39,34.86
"2018-05-23 20:40:00",341897,0.018,41,11.63,100,0,0.5,858.7712,0,-2.911,3.143,186,14.06,13.15,0.4016917,0,50.88,56.52,33.52,34.87
"2018-05-23 20:50:00",341898,0.272,5.477,11.57,100,0,1,858.8133,0,-1.355,3.128,269,14.06,13.15,0.299374,0,51.71,56.75,33.72,34.93
"2018-05-23 21:00:00",341899,0.081,78.82,11.55,100,0,0.5,858.8238,0,-38.72,3.494,211,14.01,13.15,0.3562172,0,52.83,57.04,33.99,34.99
"2018-05-23 21:10:00",341900,0.052,18.25,11.58,100,0,1,859.0281,0,0.889,3.106,222,14.05,13.15,0.3486408,0,53.11,57.27,34.06,35.05
"2018-05-23 21:20:00",341901,0.013,20.09,11.57,100,0,0.5,859.2408,0,-1.049,3.125,234,14.02,13.15,0.284219,0,53.39,57.45,34.13,35.09
"2018-05-23 21:30:00",341902,0.023,128.9,11.5,100,0,1,859.3187,0,2.314,3.093,234,13.98,13.15,0.09473903,0,53.56,57.68,34.17,35.14
"2018-05-23 21:40:00",341903,0.034,299.9,11.41,100,0,2,859.3251,0,1.396,3.102,343,13.98,13.15,0.1894775,0,53.67,58.21,34.19,35.26
"2018-05-23 21:50:00",341904,0,0,11.39,100,0,0.5,859.3987,0,3.234,3.084,308,13.97,13.15,0.2311623,0,53.78,59.61,34.22,35.59
"2018-05-23 22:00:00",341905,0.006,11.8,11.37,100,0,0.5,859.3714,0,2.825,3.088,260,13.94,13.15,0.2387413,0,53.78,60.27,34.22,35.74
"2018-05-23 22:10:00",341906,0,0,11.38,100,0,0.5,859.3187,0,2.645,3.09,232,13.88,13.14,0.3334799,0,53.73,60.62,34.21,35.82
"2018-05-23 22:20:00",341907,0,0,11.37,100,0,0.5,859.2935,0,3.128,3.085,294,13.87,13.14,0.2349544,0,53.78,60.92,34.22,35.89
"2018-05-23 22:30:00",341908,0,0,11.38,100,0,0.5,859.1882,0,3.841,3.078,242,13.81,13.17,0.4017019,0,53.78,61.22,34.22,35.96
"2018-05-23 22:40:00",341909,0,0,11.4,100,0,0,859.0471,0,3.048,3.086,226,13.84,13.2,0.3865454,0,53.73,61.52,34.21,36.02
"2018-05-23 22:50:00",341910,0,0,11.4,100,0,0.5,858.8386,0,1.242,3.103,232,13.8,13.2,0.3600169,0,53.73,61.58,34.21,36.04
"2018-05-23 23:00:00",341911,0,0,11.48,100,0,0,858.8154,0,1.572,3.1,230,13.81,13.21,0.4547569,0,53.73,61.64,34.21,36.05
"2018-05-23 23:10:00",341912,0,0,11.47,100,0,0.5,858.8196,0,0.426,3.111,289,13.79,13.23,0.4547559,0,53.73,61.7,34.21,36.06
"2018-05-23 23:20:00",341913,0,0,11.47,100,0,1,858.8996,0,1.671,3.099,307,13.75,13.25,0.4547568,0,53.73,61.76,34.21,36.08
"2018-05-23 23:30:00",341914,0,0,11.47,100,0,1,858.8133,0,1.648,3.099,251,13.71,13.26,0.337285,0,53.84,61.82,34.23,36.09
"2018-05-23 23:40:00",341915,0,0,11.49,100,0,0,858.7543,0,-0.186,3.117,300,13.72,13.27,0.3183323,0,53.84,62.3,34.23,36.2
"2018-05-23 23:50:00",341916,0,0,11.4,100,0,0,858.5605,0,-1.307,3.128,229,13.65,13.26,0.2273758,0,53.9,62.6,34.25,36.27
